Regional Weather Roundup
Issued by NWS

Home | Current Version | Previous Version | Text Only | Print | Product List | Glossary On
Versions: 1 2 3 4 5 6 7 8 9 10 11 12 13 14 15 16 17 18 19 20 21 22 23 24 25 26 27 28 29 30 31 32 33 34 35 36 37 38 39 40 41 42 43 44 45 46 47 48 49 50
000
ASUS44 KOUN 270810
RWROK

WEATHER ROUNDUP FOR OKLAHOMA
NATIONAL WEATHER SERVICE NORMAN OK
300 AM CDT WED JUL 27 2016

NOTE: "FAIR" INDICATES FEW OR NO CLOUDS BELOW 12,000 FEET WITH NO
      SIGNIFICANT WEATHER AND/OR OBSTRUCTIONS TO VISIBILITY.

OKZ001>007-009>012-014-015-017-270900-
NORTHWEST OKLAHOMA AND THE PANHANDLE

CITY           SKY/WX    TMP DP  RH WIND       PRES   REMARKS
GAGE           CLEAR     70  67  90 SW5       30.00S
GUYMON         CLEAR     71  63  75 CALM      30.05F
ENID/WOODRING  CLEAR     73  72  94 SE3       29.93F
$$

OKZ016-021>023-033>039-044-045-270900-
SOUTHWEST OKLAHOMA

CITY           SKY/WX    TMP DP  RH WIND       PRES   REMARKS
LAWTON/REGL    PTCLDY    76  71  85 CALM      29.94F
LAWTON/FT SILL PTCLDY    76  73  90 S2        29.93F
FREDERICK      CLOUDY    76  72  87 E6        29.91F
CLINTON        CLEAR     75  69  81 S6        30.00S
HOBART         CLEAR     75  71  87 S3        29.96F
ALTUS AFB      CLOUDY    74  70  85 E6        29.94F
$$

OKZ018>020-024>031-270900-
CENTRAL OKLAHOMA

CITY           SKY/WX    TMP DP  RH WIND       PRES   REMARKS
OKLAHOMA CITY  MOCLDY    75  74  96 SE3       29.95F
OKC/WILEY POST PTCLDY    77  73  87 S5        29.95F
OKC/TINKER AFB CLEAR     74  73  95 S3        29.94F
STILLWATER     PTCLDY    76  73  91 SE6       29.94F
GUTHRIE        CLEAR     76  74  93 SE6       29.94F
$$

OKZ008-013-054>072-270900-
NORTHEAST OKLAHOMA

CITY           SKY/WX    TMP DP  RH WIND       PRES   REMARKS
TULSA          MOCLDY    76  74  93 CALM      29.91F
TULSA/JONES    CLEAR     75  74  96 CALM      29.92F
PONCA CITY     CLEAR     75  71  87 SE5       29.94F
BARTLESVILLE   CLEAR     72  71  97 CALM      29.96S
MUSKOGEE       PTCLDY    74  72  93 N3        29.94S
$$

OKZ032-040>043-046>053-073>077-270900-
SOUTH CENTRAL/SOUTHEAST OKLAHOMA

CITY           SKY/WX    TMP DP  RH WIND       PRES   REMARKS
ARDMORE/DWNTWN CLEAR     73  70  88 CALM      29.92S
MCALESTER      CLOUDY    76  73  91 CALM      29.94S
$$




USA.gov is the U.S. government's official web portal to all federal, state and local government web resources and services.